OK,216,40,687,216,2014-10-01T01:40:00,0,28072014,210040
OK,216,40,687,216,2014-10-01T01:45:00,0,28072457,210040
OK,216,40,687,216,2014-10-01T01:50:00,0,28072906,210040
OK,216,40,687,216,2014-10-01T01:55:00,0,28073353,210040
OK,216,40,687,216,2014-10-01T02:05:00,0,28074119,210040
OK,216,40,687,216,2014-10-01T02:10:00,0,28074568,210040
OK,216,40,687,216,2014-10-01T02:15:00,0,28075008,210040
OK,216,40,687,216,2014-10-01T02:20:00,0,28075457,210040
OK,216,40,687,216,2014-10-01T02:25:00,0,28075906,210040
OK,216,40,687,216,2014-10-01T02:30:00,0,28076289,210040
OK,216,40,687,216,2014-10-01T02:35:00,0,28076738,210040
OK,216,40,687,216,2014-10-01T02:40:00,0,28077187,210040
OK,216,40,687,216,2014-10-01T02:45:00,0,28077636,210040
OK,299,29,687,299,2014-10-01T02:50:00,1,28078039,210040
OK,299,29,687,299,2014-10-01T02:55:00,0,28078488,210040
OK,299,29,687,299,2014-10-01T03:00:00,0,28078933,210040
OK,299,29,687,299,2014-10-01T03:05:00,0,28079381,210040
OK,299,29,687,299,2014-10-01T03:10:00,0,28079824,210040
OK,299,29,687,299,2014-10-01T03:15:00,0,28080273,210040
OK,299,29,687,299,2014-10-01T03:20:00,0,28080607,210040
OK,299,29,687,299,2014-10-01T03:25:00,0,28081056,210040
OK,299,29,687,299,2014-10-01T03:30:00,0,28081505,210040
OK,299,29,687,299,2014-10-01T03:35:00,0,28081952,210040
OK,299,29,687,299,2014-10-01T03:40:00,0,28082401,210040
OK,299,29,687,299,2014-10-01T03:45:00,0,28082834,210040
OK,299,29,687,299,2014-10-01T03:50:00,0,28083266,210040
OK,299,29,687,299,2014-10-01T03:55:00,0,28083715,210040
OK,299,29,687,299,2014-10-01T04:00:00,0,28084164,210040
OK,299,29,687,299,2014-10-01T04:05:00,0,28084605,210040
OK,299,29,687,299,2014-10-01T04:10:00,0,28085030,210040
OK,299,29,687,299,2014-10-01T04:15:00,0,28085479,210040
OK,299,29,687,299,2014-10-01T04:20:00,0,28085924,210040
OK,299,29,687,299,2014-10-01T04:25:00,0,28086373,210040
OK,299,29,687,299,2014-10-01T04:30:00,0,28086815,210040
OK,299,29,687,299,2014-10-01T04:35:00,0,28087264,210040
OK,299,29,687,299,2014-10-01T04:40:00,0,28087709,210040
OK,299,29,687,299,2014-10-01T04:45:00,0,28088158,210040
OK,299,29,687,299,2014-10-01T04:50:00,0,28088582,210040
OK,299,29,687,299,2014-10-01T04:55:00,0,28089031,210040
OK,299,29,687,299,2014-10-01T05:00:00,0,28089461,210040
OK,299,29,687,299,2014-10-01T05:05:00,0,28089910,210040
OK,325,26,687,325,2014-10-01T05:10:00,1,28090359,210040
OK,325,26,687,325,2014-10-01T05:15:00,0,28090703,210040
OK,325,26,687,325,2014-10-01T05:20:00,0,28091152,210040
OK,325,26,687,325,2014-10-01T05:25:00,0,28091601,210040
OK,391,22,687,391,2014-10-01T05:30:00,1,28092018,210040
OK,391,22,687,391,2014-10-01T05:35:00,1,28092467,210040
OK,391,22,687,391,2014-10-01T05:40:00,0,28092911,210040
OK,391,22,687,391,2014-10-01T05:45:00,0,28093352,210040
OK,391,22,687,391,2014-10-01T05:50:00,0,28093783,210040
OK,391,22,687,391,2014-10-01T05:55:00,0,28094232,210040
OK,391,22,687,391,2014-10-01T06:00:00,0,28094643,210040
OK,391,22,687,391,2014-10-01T06:05:00,0,28095088,210040
OK,391,22,687,391,2014-10-01T06:10:00,0,28095535,210040
OK,391,22,687,391,2014-10-01T06:15:00,0,28095984,210040
OK,391,22,687,391,2014-10-01T06:20:00,0,28096397,210040
OK,391,22,687,391,2014-10-01T06:25:00,0,28096846,210040
OK,401,21,687,401,2014-10-01T06:30:00,1,28097280,210040
OK,401,21,687,401,2014-10-01T06:35:00,0,28097729,210040
OK,401,21,687,401,2014-10-01T06:40:00,0,28098178,210040
OK,401,21,687,401,2014-10-01T06:45:00,0,28098615,210040
OK,331,26,687,331,2014-10-01T06:50:00,2,28099059,210040
OK,331,26,687,331,2014-10-01T06:55:00,2,28099507,210040
OK,355,24,687,355,2014-10-01T07:00:00,0,28099850,210040
OK,355,24,687,355,2014-10-01T07:05:00,0,28100285,210040
OK,322,27,687,322,2014-10-01T07:10:00,1,28100606,210040
OK,322,27,687,322,2014-10-01T07:15:00,1,28101055,210040
OK,272,32,687,272,2014-10-01T07:20:00,1,28101426,210040
OK,272,32,687,272,2014-10-01T07:25:00,1,28101875,210040
OK,272,32,687,272,2014-10-01T07:30:00,0,28102311,210040
OK,272,32,687,272,2014-10-01T07:35:00,0,28102760,210040
OK,272,32,687,272,2014-10-01T07:40:00,0,28103187,210040
OK,272,32,687,272,2014-10-01T07:45:00,0,28103634,210040
OK,272,32,687,272,2014-10-01T07:50:00,0,28104079,210040
OK,272,32,687,272,2014-10-01T07:55:00,0,28104524,210040
OK,272,32,687,272,2014-10-01T08:00:00,0,28104965,210040
OK,276,31,687,276,2014-10-01T08:05:00,1,28105410,210040
OK,276,31,687,276,2014-10-01T08:10:00,1,28105850,210040
OK,276,31,687,276,2014-10-01T08:15:00,0,28106299,210040
OK,276,31,687,276,2014-10-01T08:20:00,0,28106736,210040
OK,276,31,687,276,2014-10-01T08:25:00,0,28107142,210040
OK,276,31,687,276,2014-10-01T08:30:00,0,28107574,210040
OK,276,31,687,276,2014-10-01T08:35:00,0,28108023,210040
OK,276,31,687,276,2014-10-01T08:40:00,0,28108462,210040
OK,276,31,687,276,2014-10-01T08:45:00,0,28108911,210040
OK,276,31,687,276,2014-10-01T08:50:00,0,28109339,210040
OK,276,31,687,276,2014-10-01T08:55:00,0,28109788,210040
OK,276,31,687,276,2014-10-01T09:00:00,0,28110131,210040
OK,276,31,687,276,2014-10-01T09:05:00,0,28110580,210040
OK,276,31,687,276,2014-10-01T09:10:00,0,28111003,210040
OK,276,31,687,276,2014-10-01T09:15:00,0,28111452,210040
OK,276,31,687,276,2014-10-01T09:20:00,0,28111881,210040
OK,276,31,687,276,2014-10-01T09:25:00,0,28112330,210040
OK,276,31,687,276,2014-10-01T09:30:00,0,28112671,210040
OK,276,31,687,276,2014-10-01T09:35:00,0,28113120,210040
OK,276,31,687,276,2014-10-01T09:40:00,0,28113544,210040
OK,276,31,687,276,2014-10-01T09:45:00,0,28113993,210040
OK,385,22,687,385,2014-10-01T09:50:00,1,28114425,210040
OK,397,22,687,397,2014-10-01T09:55:00,2,28114873,210040
OK,410,21,687,410,2014-10-01T10:00:00,1,28115228,210040
OK,332,26,687,332,2014-10-01T10:05:00,1,28115677,210040
OK,332,26,687,332,2014-10-01T10:10:00,0,28116089,210040
OK,332,26,687,332,2014-10-01T10:15:00,0,28116538,210040
OK,332,26,687,332,2014-10-01T10:20:00,0,28116946,210040
OK,332,26,687,332,2014-10-01T10:25:00,0,28117395,210040
OK,332,26,687,332,2014-10-01T10:30:00,0,28117820,210040
OK,332,26,687,332,2014-10-01T10:35:00,0,28118269,210040
OK,332,26,687,332,2014-10-01T10:40:00,0,28118714,210040
OK,332,26,687,332,2014-10-01T10:45:00,0,28119161,210040
OK,583,15,687,583,2014-10-01T10:50:00,1,28119605,210040
OK,314,27,687,314,2014-10-01T10:55:00,2,28120053,210040
OK,314,27,687,314,2014-10-01T11:00:00,2,28120501,210040
OK,320,27,687,320,2014-10-01T11:05:00,0,28120950,210040
OK,390,22,687,390,2014-10-01T11:10:00,1,28121333,210040
OK,390,22,687,390,2014-10-01T11:15:00,0,28121782,210040
OK,390,22,687,390,2014-10-01T11:20:00,0,28122220,210040
OK,390,22,687,390,2014-10-01T11:25:00,0,28122669,210040
OK,390,22,687,390,2014-10-01T11:30:00,0,28123110,210040
OK,390,22,687,390,2014-10-01T11:35:00,0,28123559,210040
OK,390,22,687,390,2014-10-01T11:40:00,0,28123991,210040
OK,390,22,687,390,2014-10-01T11:45:00,0,28124440,210040
OK,390,22,687,390,2014-10-01T11:50:00,0,28124842,210040
OK,390,22,687,390,2014-10-01T11:55:00,0,28125291,210040
OK,390,22,687,390,2014-10-01T12:00:00,0,28125720,210040
OK,390,22,687,390,2014-10-01T12:05:00,0,28126169,210040
OK,390,22,687,390,2014-10-01T12:10:00,0,28126521,210040
OK,390,22,687,390,2014-10-01T12:15:00,0,28126970,210040
OK,390,22,687,390,2014-10-01T12:20:00,0,28127419,210040
OK,390,22,687,390,2014-10-01T12:25:00,0,28127868,210040
OK,390,22,687,390,2014-10-01T12:30:00,0,28128296,210040
OK,390,22,687,390,2014-10-01T12:35:00,0,28128745,210040
OK,390,22,687,390,2014-10-01T12:40:00,0,28129180,210040
OK,390,22,687,390,2014-10-01T12:45:00,0,28129629,210040
OK,334,26,687,334,2014-10-01T12:50:00,1,28130063,210040
OK,334,26,687,334,2014-10-01T12:55:00,1,28130512,210040
OK,334,26,687,334,2014-10-01T13:00:00,0,28130940,210040
OK,334,26,687,334,2014-10-01T13:05:00,0,28131389,210040
OK,582,15,687,582,2014-10-01T13:10:00,1,28131826,210040
OK,582,15,687,582,2014-10-01T13:15:00,0,28132275,210040
OK,582,15,687,582,2014-10-01T13:20:00,0,28132713,210040
OK,419,20,687,419,2014-10-01T13:25:00,1,28133160,210040
OK,398,22,687,398,2014-10-01T13:30:00,2,28133598,210040
OK,377,23,687,377,2014-10-01T13:35:00,1,28134047,210040
OK,377,23,687,377,2014-10-01T13:40:00,0,28134486,210040
OK,377,23,687,377,2014-10-01T13:45:00,0,28134935,210040
OK,377,23,687,377,2014-10-01T13:50:00,0,28135354,210040
OK,329,26,687,329,2014-10-01T13:55:00,1,28135803,210040
OK,329,26,687,329,2014-10-01T14:00:00,1,28136240,210040
OK,329,26,687,329,2014-10-01T14:05:00,0,28136689,210040
OK,329,26,687,329,2014-10-01T14:10:00,0,28137129,210040
OK,329,26,687,329,2014-10-01T14:15:00,0,28137578,210040
OK,329,26,687,329,2014-10-01T14:20:00,0,28138012,210040
OK,510,17,687,510,2014-10-01T14:25:00,1,28138461,210040
OK,510,17,687,510,2014-10-01T14:30:00,0,28138889,210040
OK,260,33,687,260,2014-10-01T14:35:00,1,28139338,210040
OK,260,33,687,260,2014-10-01T14:40:00,1,28139749,210040
OK,344,25,687,344,2014-10-01T14:45:00,1,28140198,210040
OK,334,26,687,334,2014-10-01T14:50:00,3,28140640,210040
OK,334,26,687,334,2014-10-01T14:55:00,1,28141088,210040
OK,277,31,687,277,2014-10-01T15:00:00,1,28141515,210040
OK,277,31,687,277,2014-10-01T15:05:00,0,28141964,210040
OK,277,31,687,277,2014-10-01T15:10:00,0,28142392,210040
OK,329,26,687,329,2014-10-01T15:15:00,1,28142841,210040
OK,335,26,687,335,2014-10-01T15:20:00,1,28143268,210040
OK,335,26,687,335,2014-10-01T15:25:00,0,28143717,210040
OK,335,26,687,335,2014-10-01T15:30:00,0,28144165,210040
OK,273,32,687,273,2014-10-01T15:35:00,1,28144614,210040
OK,272,32,687,272,2014-10-01T15:40:00,2,28145035,210040
OK,272,32,687,272,2014-10-01T15:45:00,1,28145449,210040
OK,272,32,687,272,2014-10-01T15:50:00,0,28145898,210040
OK,272,32,687,272,2014-10-01T15:55:00,0,28146347,210040
OK,272,32,687,272,2014-10-01T16:00:00,0,28146796,210040
OK,272,32,687,272,2014-10-01T16:05:00,0,28147204,210040
OK,262,33,687,262,2014-10-01T16:10:00,1,28147648,210040
OK,454,19,687,454,2014-10-01T16:15:00,1,28148097,210040
OK,454,19,687,454,2014-10-01T16:20:00,0,28148498,210040
OK,454,19,687,454,2014-10-01T16:25:00,0,28148947,210040
OK,454,19,687,454,2014-10-01T16:30:00,0,28149386,210040
OK,454,19,687,454,2014-10-01T16:35:00,0,28149835,210040
OK,277,31,687,277,2014-10-01T16:40:00,1,28150261,210040
OK,277,31,687,277,2014-10-01T16:45:00,1,28150710,210040
OK,277,31,687,277,2014-10-01T16:50:00,0,28151128,210040
OK,339,25,687,339,2014-10-01T16:55:00,1,28151577,210040
OK,339,25,687,339,2014-10-01T17:05:00,0,28152026,210040
OK,339,25,687,339,2014-10-01T17:10:00,0,28152475,210040
OK,339,25,687,339,2014-10-01T17:15:00,0,28152921,210040
OK,339,25,687,339,2014-10-01T17:20:00,0,28153368,210040
OK,339,25,687,339,2014-10-01T17:25:00,0,28153817,210040
OK,339,25,687,339,2014-10-01T17:30:00,0,28154227,210040
OK,339,25,687,339,2014-10-01T17:35:00,0,28154676,210040
OK,339,25,687,339,2014-10-01T17:40:00,0,28155118,210040
OK,339,25,687,339,2014-10-01T17:45:00,0,28155566,210040
OK,339,25,687,339,2014-10-01T17:50:00,0,28155984,210040
OK,339,25,687,339,2014-10-01T17:55:00,0,28156433,210040
OK,339,25,687,339,2014-10-01T18:00:00,0,28156881,210040
OK,339,25,687,339,2014-10-01T18:05:00,0,28157320,210040
OK,339,25,687,339,2014-10-01T18:10:00,0,28157750,210040
OK,339,25,687,339,2014-10-01T18:15:00,0,28158198,210040
OK,339,25,687,339,2014-10-01T18:20:00,0,28158642,210040
OK,295,29,687,295,2014-10-01T18:25:00,1,28159087,210040
OK,295,29,687,295,2014-10-01T18:35:00,0,28159869,210040
OK,295,29,687,295,2014-10-01T18:40:00,0,28160318,210040
OK,295,29,687,295,2014-10-01T18:45:00,0,28160767,210040
OK,295,29,687,295,2014-10-01T18:50:00,0,28161205,210040
OK,304,28,687,304,2014-10-01T18:55:00,1,28161654,210040
OK,304,28,687,304,2014-10-01T19:00:00,0,28162071,210040
OK,304,28,687,304,2014-10-01T19:05:00,0,28162520,210040
OK,304,28,687,304,2014-10-01T19:10:00,0,28162914,210040
OK,304,28,687,304,2014-10-01T19:15:00,0,28163353,210040
OK,304,28,687,304,2014-10-01T19:20:00,0,28163801,210040
OK,304,28,687,304,2014-10-01T19:25:00,0,28164250,210040
OK,304,28,687,304,2014-10-01T19:30:00,0,28164681,210040
OK,304,28,687,304,2014-10-01T19:35:00,0,28165130,210040
OK,304,28,687,304,2014-10-01T19:40:00,0,28165555,210040
OK,304,28,687,304,2014-10-01T19:45:00,0,28166003,210040
OK,304,28,687,304,2014-10-01T19:50:00,0,28166439,210040
OK,304,28,687,304,2014-10-01T19:55:00,0,28166806,210040
OK,304,28,687,304,2014-10-01T20:00:00,0,28167255,210040
OK,304,28,687,304,2014-10-01T20:05:00,0,28167684,210040
OK,304,28,687,304,2014-10-01T20:10:00,0,28168117,210040
OK,304,28,687,304,2014-10-01T20:15:00,0,28168566,210040
OK,304,28,687,304,2014-10-01T20:20:00,0,28169011,210040
OK,304,28,687,304,2014-10-01T20:25:00,0,28169460,210040
OK,304,28,687,304,2014-10-01T20:30:00,0,28169908,210040
OK,304,28,687,304,2014-10-01T20:35:00,0,28170334,210040
OK,304,28,687,304,2014-10-01T20:40:00,0,28170779,210040
OK,304,28,687,304,2014-10-01T20:45:00,0,28171227,210040
OK,304,28,687,304,2014-10-01T20:50:00,0,28171664,210040
OK,304,28,687,304,2014-10-01T20:55:00,0,28172110,210040
OK,304,28,687,304,2014-10-01T21:00:00,0,28172558,210040
OK,304,28,687,304,2014-10-01T21:05:00,0,28173004,210040
OK,304,28,687,304,2014-10-01T21:10:00,0,28173450,210040
OK,304,28,687,304,2014-10-01T21:15:00,0,28173899,210040
OK,264,33,687,264,2014-10-01T21:20:00,1,28174340,210040
OK,264,33,687,264,2014-10-01T21:25:00,0,28174789,210040
OK,264,33,687,264,2014-10-01T21:35:00,0,28175611,210040
OK,264,33,687,264,2014-10-01T21:40:00,0,28176060,210040
OK,264,33,687,264,2014-10-01T21:45:00,0,28176509,210040
OK,264,33,687,264,2014-10-01T21:50:00,0,28176958,210040
OK,264,33,687,264,2014-10-01T21:55:00,0,28177314,210040
OK,264,33,687,264,2014-10-01T22:00:00,0,28177754,210040
OK,264,33,687,264,2014-10-01T22:05:00,0,28178200,210040
OK,264,33,687,264,2014-10-01T22:10:00,0,28178649,210040
OK,264,33,687,264,2014-10-01T22:15:00,0,28179096,210040
OK,264,33,687,264,2014-10-01T22:20:00,0,28179530,210040
OK,264,33,687,264,2014-10-01T22:25:00,0,28179973,210040
OK,264,33,687,264,2014-10-01T22:30:00,0,28180420,210040
OK,264,33,687,264,2014-10-01T22:35:00,0,28180818,210040
OK,264,33,687,264,2014-10-01T22:40:00,0,28181267,210040
OK,264,33,687,264,2014-10-01T22:45:00,0,28181691,210040
OK,264,33,687,264,2014-10-01T22:50:00,0,28182139,210040
OK,264,33,687,264,2014-10-01T22:55:00,0,28182586,210040
OK,264,33,687,264,2014-10-01T23:00:00,0,28183035,210040
OK,264,33,687,264,2014-10-01T23:05:00,0,28183452,210040
OK,264,33,687,264,2014-10-01T23:10:00,0,28183885,210040
OK,264,33,687,264,2014-10-01T23:15:00,0,28184330,210040
OK,264,33,687,264,2014-10-01T23:20:00,0,28184779,210040
OK,264,33,687,264,2014-10-01T23:25:00,0,28185214,210040
OK,264,33,687,264,2014-10-01T23:30:00,0,28185662,210040
OK,264,33,687,264,2014-10-01T23:40:00,0,28186485,210040
OK,264,33,687,264,2014-10-01T23:45:00,0,28187325,210040
OK,264,33,687,264,2014-10-01T23:55:00,0,28187774,210040
OK,264,33,687,264,2014-10-02T00:00:00,0,28188221,210040
OK,264,33,687,264,2014-10-02T00:10:00,0,28189100,210040
OK,264,33,687,264,2014-10-02T00:15:00,0,28189549,210040
OK,264,33,687,264,2014-10-02T00:20:00,0,28189971,210040
OK,264,33,687,264,2014-10-02T00:25:00,0,28190415,210040
OK,264,33,687,264,2014-10-02T00:30:00,0,28190773,210040
OK,264,33,687,264,2014-10-02T00:35:00,0,28191222,210040
OK,264,33,687,264,2014-10-02T00:45:00,0,28191977,210040
OK,264,33,687,264,2014-10-02T00:50:00,0,28192426,210040
OK,264,33,687,264,2014-10-02T00:55:00,0,28192859,210040
OK,264,33,687,264,2014-10-02T01:00:00,0,28193278,210040
OK,264,33,687,264,2014-10-02T01:05:00,0,28193670,210040
OK,264,33,687,264,2014-10-02T01:10:00,0,28194119,210040
OK,264,33,687,264,2014-10-02T01:15:00,0,28194568,210040
OK,264,33,687,264,2014-10-02T01:20:00,0,28195007,210040
OK,264,33,687,264,2014-10-02T01:25:00,0,28195253,210040
OK,264,33,687,264,2014-10-02T01:30:00,0,28195702,210040
OK,264,33,687,264,2014-10-02T01:35:00,0,28196151,210040
OK,264,33,687,264,2014-10-02T01:40:00,0,28196435,210040
OK,264,33,687,264,2014-10-02T01:45:00,0,28196884,210040
OK,264,33,687,264,2014-10-02T01:50:00,0,28197307,210040
OK,264,33,687,264,2014-10-02T01:55:00,0,28197756,210040
OK,264,33,687,264,2014-10-02T02:00:00,0,28198204,210040
OK,264,33,687,264,2014-10-02T02:05:00,0,28198652,210040
OK,264,33,687,264,2014-10-02T02:10:00,0,28199101,210040
OK,264,33,687,264,2014-10-02T02:15:00,0,28199473,210040
OK,264,33,687,264,2014-10-02T02:20:00,0,28199915,210040
OK,264,33,687,264,2014-10-02T02:25:00,0,28200357,210040
OK,264,33,687,264,2014-10-02T02:30:00,0,28200800,210040
OK,264,33,687,264,2014-10-02T02:35:00,0,28201249,210040
OK,264,33,687,264,2014-10-02T02:45:00,0,28201680,210040
OK,264,33,687,264,2014-10-02T02:50:00,0,28202129,210040
OK,264,33,687,264,2014-10-02T02:55:00,0,28202578,210040
OK,264,33,687,264,2014-10-02T03:00:00,0,28203020,210040
OK,264,33,687,264,2014-10-02T03:05:00,0,28203468,210040
OK,264,33,687,264,2014-10-02T03:15:00,0,28203903,210040
OK,264,33,687,264,2014-10-02T03:30:00,0,28204352,210040
OK,264,33,687,264,2014-10-02T03:35:00,0,28204801,210040
OK,264,33,687,264,2014-10-02T03:40:00,0,28205250,210040
OK,264,33,687,264,2014-10-02T03:45:00,0,28205678,210040
OK,264,33,687,264,2014-10-02T03:50:00,0,28206105,210040
OK,264,33,687,264,2014-10-02T03:55:00,0,28206508,210040
OK,264,33,687,264,2014-10-02T04:00:00,0,28206957,210040
OK,264,33,687,264,2014-10-02T04:05:00,0,28207406,210040
OK,264,33,687,264,2014-10-02T04:10:00,0,28207825,210040
OK,264,33,687,264,2014-10-02T04:15:00,0,28208274,210040
OK,264,33,687,264,2014-10-02T04:20:00,0,28208701,210040
OK,264,33,687,264,2014-10-02T04:25:00,0,28209150,210040
OK,264,33,687,264,2014-10-02T04:30:00,0,28209588,210040
OK,264,33,687,264,2014-10-02T04:35:00,0,28210037,210040
OK,264,33,687,264,2014-10-02T04:40:00,0,28210460,210040
OK,264,33,687,264,2014-10-02T04:45:00,0,28210909,210040
OK,264,33,687,264,2014-10-02T04:50:00,0,28211334,210040
OK,264,33,687,264,2014-10-02T04:55:00,0,28211778,210040
OK,264,33,687,264,2014-10-02T05:00:00,0,28212156,210040
OK,331,26,687,331,2014-10-02T05:05:00,0,28212605,210040
OK,331,26,687,331,2014-10-02T05:10:00,0,28213034,210040
OK,331,26,687,331,2014-10-02T05:15:00,0,28213483,210040
OK,331,26,687,331,2014-10-02T05:20:00,0,28213921,210040
OK,331,26,687,331,2014-10-02T05:25:00,0,28214370,210040
OK,331,26,687,331,2014-10-02T05:30:00,0,28214783,210040
OK,331,26,687,331,2014-10-02T05:35:00,0,28215232,210040
OK,331,26,687,331,2014-10-02T05:40:00,0,28215648,210040
OK,331,26,687,331,2014-10-02T05:45:00,0,28216097,210040
OK,331,26,687,331,2014-10-02T05:50:00,0,28216436,210040
OK,331,26,687,331,2014-10-02T05:55:00,0,28216876,210040
OK,331,26,687,331,2014-10-02T06:00:00,0,28217323,210040
OK,331,26,687,331,2014-10-02T06:05:00,0,28217772,210040
OK,331,26,687,331,2014-10-02T06:10:00,0,28218211,210040
OK,331,26,687,331,2014-10-02T06:15:00,0,28218660,210040
OK,331,26,687,331,2014-10-02T06:20:00,0,28219080,210040
OK,331,26,687,331,2014-10-02T06:25:00,0,28219529,210040
OK,358,24,687,358,2014-10-02T06:30:00,1,28219902,210040
OK,358,24,687,358,2014-10-02T06:35:00,1,28220351,210040
OK,358,24,687,358,2014-10-02T06:40:00,0,28220785,210040
OK,358,24,687,358,2014-10-02T06:45:00,0,28221234,210040
OK,358,24,687,358,2014-10-02T07:00:00,0,28221901,210040
OK,453,19,687,453,2014-10-02T07:05:00,1,28222046,210040
OK,403,21,687,403,2014-10-02T07:10:00,2,28222495,210040
OK,354,24,687,354,2014-10-02T07:15:00,1,28222944,210040
OK,354,24,687,354,2014-10-02T07:20:00,0,28223375,210040
OK,276,31,687,276,2014-10-02T07:25:00,1,28223810,210040
OK,276,31,687,276,2014-10-02T07:35:00,0,28224613,210040
OK,276,31,687,276,2014-10-02T07:40:00,0,28225062,210040
OK,276,31,687,276,2014-10-02T07:45:00,0,28225472,210040
OK,276,31,687,276,2014-10-02T07:50:00,0,28225833,210040
OK,252,34,687,252,2014-10-02T07:55:00,1,28226282,210040
OK,252,34,687,252,2014-10-02T08:00:00,0,28226723,210040
OK,252,34,687,252,2014-10-02T08:05:00,0,28227172,210040
OK,252,34,687,252,2014-10-02T08:10:00,0,28227587,210040
OK,336,26,687,336,2014-10-02T08:15:00,1,28228036,210040
OK,336,26,687,336,2014-10-02T08:20:00,0,28228395,210040
OK,336,26,687,336,2014-10-02T08:25:00,0,28228844,210040
OK,212,41,687,212,2014-10-02T08:30:00,1,28229254,210040
OK,301,29,687,301,2014-10-02T08:35:00,1,28229703,210040
OK,301,29,687,301,2014-10-02T08:40:00,1,28230053,210040
OK,301,29,687,301,2014-10-02T08:45:00,0,28230502,210040
OK,301,29,687,301,2014-10-02T08:50:00,0,28230868,210040
OK,301,29,687,301,2014-10-02T08:55:00,0,28231315,210040
OK,301,29,687,301,2014-10-02T09:00:00,0,28231740,210040
OK,301,29,687,301,2014-10-02T09:05:00,0,28232182,210040
OK,301,29,687,301,2014-10-02T09:15:00,0,28232531,210040
OK,301,29,687,301,2014-10-02T09:20:00,0,28232980,210040
OK,301,29,687,301,2014-10-02T09:25:00,0,28233429,210040
OK,301,29,687,301,2014-10-02T09:30:00,0,28233853,210040
OK,301,29,687,301,2014-10-02T09:40:00,0,28234635,210040
OK,301,29,687,301,2014-10-02T09:45:00,0,28235084,210040
OK,301,29,687,301,2014-10-02T09:50:00,0,28235511,210040
OK,246,35,687,246,2014-10-02T09:55:00,1,28235960,210040
OK,246,35,687,246,2014-10-02T10:00:00,1,28236403,210040
OK,246,35,687,246,2014-10-02T10:05:00,0,28236850,210040
OK,246,35,687,246,2014-10-02T10:10:00,0,28237252,210040
OK,246,35,687,246,2014-10-02T10:15:00,0,28237700,210040
OK,246,35,687,246,2014-10-02T10:20:00,0,28238149,210040
OK,246,35,687,246,2014-10-02T10:25:00,0,28238596,210040
OK,246,35,687,246,2014-10-02T10:30:00,0,28239037,210040
OK,309,28,687,309,2014-10-02T10:35:00,1,28239486,210040
OK,309,28,687,309,2014-10-02T10:40:00,0,28239916,210040
OK,313,27,687,313,2014-10-02T10:45:00,1,28240365,210040
OK,313,27,687,313,2014-10-02T10:50:00,0,28240809,210040
OK,313,27,687,313,2014-10-02T10:55:00,0,28241258,210040
OK,313,27,687,313,2014-10-02T11:00:00,0,28241690,210040
OK,313,27,687,313,2014-10-02T11:05:00,0,28242138,210040
OK,313,27,687,313,2014-10-02T11:10:00,0,28242534,210040
OK,303,28,687,303,2014-10-02T11:15:00,1,28242983,210040
OK,303,28,687,303,2014-10-02T11:20:00,1,28243432,210040
OK,303,28,687,303,2014-10-02T11:25:00,0,28243757,210040
OK,303,28,687,303,2014-10-02T11:30:00,0,28244195,210040
OK,303,28,687,303,2014-10-02T11:35:00,0,28244624,210040
OK,303,28,687,303,2014-10-02T11:40:00,0,28245073,210040
OK,303,28,687,303,2014-10-02T11:45:00,0,28245522,210040
OK,303,28,687,303,2014-10-02T11:50:00,0,28245928,210040
OK,303,28,687,303,2014-10-02T11:55:00,0,28246377,210040
OK,292,29,687,292,2014-10-02T12:00:00,1,28246814,210040
OK,292,29,687,292,2014-10-02T12:05:00,1,28247262,210040
OK,292,29,687,292,2014-10-02T12:10:00,0,28247709,210040
OK,170,51,687,170,2014-10-02T12:15:00,0,28248139,210040
OK,170,51,687,170,2014-10-02T12:20:00,0,28248588,210040
OK,170,51,687,170,2014-10-02T12:25:00,0,28249035,210040
OK,170,51,687,170,2014-10-02T12:30:00,0,28249463,210040
OK,317,27,687,317,2014-10-02T12:35:00,1,28249907,210040
OK,317,27,687,317,2014-10-02T12:40:00,1,28250291,210040
OK,317,27,687,317,2014-10-02T12:45:00,0,28250724,210040
OK,317,27,687,317,2014-10-02T13:20:00,0,28251584,210040
OK,317,27,687,317,2014-10-02T13:30:00,0,28252049,210040
OK,317,27,687,317,2014-10-02T13:35:00,0,28252186,210040
OK,317,27,687,317,2014-10-02T13:40:00,0,28252633,210040
OK,317,27,687,317,2014-10-02T13:45:00,0,28253075,210040
OK,317,27,687,317,2014-10-02T13:50:00,0,28253492,210040
OK,299,29,687,299,2014-10-02T13:55:00,1,28253941,210040
OK,330,26,687,330,2014-10-02T14:10:00,1,28254672,210040
OK,330,26,687,330,2014-10-02T14:15:00,0,28254795,210040
OK,330,26,687,330,2014-10-02T14:20:00,0,28255244,210040
OK,330,26,687,330,2014-10-02T14:25:00,0,28255693,210040
OK,390,22,687,390,2014-10-02T14:30:00,1,28256121,210040
OK,390,22,687,390,2014-10-02T14:35:00,0,28256570,210040
OK,390,22,687,390,2014-10-02T14:40:00,0,28256998,210040
OK,390,22,687,390,2014-10-02T14:45:00,0,28257447,210040
OK,390,22,687,390,2014-10-02T14:50:00,0,28257888,210040